Flag for U.S.A. Weather past 2 weeks in Hollywood, Florida, U.S.A.

81 °F

Mostly cloudy.

Feels Like: 84 °F
Forecast: 73 / 85 °F
Wind: 7 mph from West

Location: Fort Lauderdale / Hollywood International Airport

Current Time: Oct 6, 2015 at 8:55:33 PM

Latest Report: Oct 6, 2015 at 7:53 PM

Visibility: 10 mi

Pressure: 29.88 "Hg

Humidity: 65%

Dew point: 68 °F

Location of HollywoodLocation

Historic Weather in Hollywood — Graph


Hollywood temperature yesterday

Maximum temperature yesterday: 86 °F (at 1:53 PM)
Minimum temperature yesterday: 71 °F (at 4:53 AM)
Average temperature yesterday: 77 °F

Past Weeks' High & Low Weather Summary

High91 °F (Sep 30, 4:53 PM)100% (Sep 22, 6:04 PM)29.95 "Hg (Sep 22, 6:04 PM)
Low71 °F (Oct 4, 5:53 AM)45% (Oct 3, 2:53 PM)29.50 "Hg (Oct 2, 3:53 PM)
Average81 °F78%29.80 "Hg
* Reported Sep 21 6:53 PM — Oct 6 6:53 PM, Hollywood, Weather by CustomWeather, © 2015

Note: Actual official high and low records may vary slightly from our data, if they occured in-between our weather recording intervals... More about our weather records


Hollywood weather history for previous 24 hours

Time TempWeatherWind HumidityBarometerVisibility
6:53 PM
Tue, Oct 6
84 °FPartly sunny.6 mph55%29.87 "Hg10 mi
5:53 PM84 °FPartly sunny.No wind57%29.85 "Hg10 mi
4:53 PM85 °FMostly cloudy.5 mph55%29.85 "Hg10 mi
3:53 PM85 °FPartly sunny.7 mph57%29.85 "Hg10 mi
2:53 PM86 °FPartly sunny.9 mph53%29.86 "Hg10 mi
1:53 PM86 °FPartly sunny.10 mph53%29.87 "Hg10 mi
12:53 PM85 °FBroken clouds.7 mph61%29.90 "Hg10 mi
11:53 AM83 °FBroken clouds.7 mph65%29.91 "Hg10 mi
10:53 AM82 °FBroken clouds.9 mph70%29.92 "Hg10 mi
9:53 AM80 °FBroken clouds.9 mph76%29.91 "Hg10 mi
8:53 AM76 °FScattered clouds.5 mph88%29.90 "Hg10 mi
7:53 AM75 °FPartly cloudy.5 mph90%29.89 "Hg10 mi
6:53 AM74 °FPartly cloudy.5 mph94%29.88 "Hg10 mi
5:53 AM74 °FPassing clouds.3 mph94%29.85 "Hg10 mi
4:53 AM74 °FPassing clouds.3 mph94%29.83 "Hg10 mi
3:53 AM74 °FPassing clouds.5 mph91%29.84 "Hg10 mi
2:53 AM74 °FClear.6 mph91%29.84 "Hg10 mi
1:53 AM74 °FPassing clouds.6 mph91%29.84 "Hg10 mi
12:53 AM74 °FPassing clouds.3 mph88%29.86 "Hg10 mi
11:53 PM
Mon, Oct 5
75 °FPassing clouds.3 mph85%29.86 "Hg10 mi
10:53 PM75 °FPassing clouds.3 mph85%29.86 "Hg10 mi
9:53 PM76 °FPassing clouds.9 mph82%29.85 "Hg10 mi
8:53 PM79 °FPassing clouds.5 mph74%29.83 "Hg10 mi
Weather by CustomWeather, © 2015

See weather overviewHow to use our weather pages